YMA56A RJOB-RKPC

Flight info

Callsign YMA56A
Flight time N/A
Altitude 40000
Route OYE V28 MARCO Y284 KATTA V28 DGC A595 TAMNA TAMNA2M
Aircraft A359/H-SDE2E3GHIJ3J4J5LM1ORWXY/LB1D1

Departure

Time 2026-04-30 09:07
Airport Okayama Momotaro Airport (RJOB)

Arrival

Time N/A
Airport Jeju International Airport (RKPC)
Time Latitude Longitude Altitude Speed Heading
2026-04-30 08:52 34.76057 133.85583 805 ft 0 kts 329°
2026-04-30 08:59 34.76040 133.85594 804 ft 4 kts 329°
2026-04-30 08:59 34.76017 133.85611 802 ft 4 kts 329°
2026-04-30 08:59 34.76002 133.85624 801 ft 0 kts 317°
2026-04-30 09:03 34.76008 133.85615 803 ft 12 kts 304°
2026-04-30 09:03 34.75989 133.85543 805 ft 10 kts 221°
2026-04-30 09:03 34.75933 133.85486 803 ft 12 kts 220°
2026-04-30 09:04 34.75810 133.85358 801 ft 32 kts 224°
2026-04-30 09:04 34.75683 133.85138 798 ft 31 kts 241°
2026-04-30 09:04 34.75575 133.84924 798 ft 29 kts 235°
2026-04-30 09:04 34.75481 133.84722 799 ft 26 kts 242°
2026-04-30 09:05 34.75393 133.84543 803 ft 23 kts 239°
2026-04-30 09:05 34.75312 133.84379 804 ft 24 kts 239°
2026-04-30 09:05 34.75215 133.84179 799 ft 31 kts 239°
2026-04-30 09:05 34.75135 133.84075 793 ft 12 kts 189°
2026-04-30 09:06 34.75048 133.84115 795 ft 16 kts 144°
2026-04-30 09:06 34.75050 133.84239 800 ft 20 kts 59°
2026-04-30 09:06 34.75240 133.84618 801 ft 87 kts 59°
2026-04-30 09:06 34.75660 133.85471 787 ft 146 kts 59°
2026-04-30 09:07 34.76260 133.86714 840 ft 187 kts 59°
2026-04-30 09:07 34.76942 133.88075 1452 ft 191 kts 60°
2026-04-30 09:07 34.77615 133.89391 2365 ft 184 kts 62°
2026-04-30 09:07 34.78261 133.90703 2995 ft 185 kts 69°
2026-04-30 09:08 34.78827 133.92168 3357 ft 200 kts 72°
2026-04-30 09:08 34.79430 133.93766 3658 ft 220 kts 70°
2026-04-30 09:08 34.80119 133.95518 4010 ft 239 kts 70°
2026-04-30 09:08 34.80878 133.97383 4447 ft 255 kts 69°
2026-04-30 09:09 34.81691 133.99336 5081 ft 263 kts 69°
2026-04-30 09:09 34.82306 134.01397 5760 ft 258 kts 90°
2026-04-30 09:09 34.82100 134.03489 6394 ft 253 kts 116°
2026-04-30 09:09 34.81160 134.05242 7062 ft 250 kts 139°
2026-04-30 09:10 34.79698 134.06354 7673 ft 253 kts 162°
2026-04-30 09:10 34.77936 134.06604 8269 ft 260 kts 186°
2026-04-30 09:10 34.76226 134.05877 8848 ft 269 kts 211°
2026-04-30 09:10 34.74934 134.04230 9460 ft 281 kts 237°
2026-04-30 09:11 34.74391 134.01922 10057 ft 294 kts 265°
2026-04-30 09:11 34.74497 133.99422 10650 ft 300 kts 270°
2026-04-30 09:11 34.74596 133.96856 10926 ft 315 kts 269°
2026-04-30 09:11 34.74683 133.94137 11194 ft 330 kts 269°
2026-04-30 09:12 34.74773 133.91300 11458 ft 344 kts 269°
2026-04-30 09:12 34.74869 133.88348 11712 ft 358 kts 270°
2026-04-30 09:12 34.74769 133.85273 11926 ft 369 kts 259°
2026-04-30 09:12 34.74025 133.82291 12162 ft 378 kts 244°
2026-04-30 09:13 34.72641 133.79558 12397 ft 388 kts 233°
2026-04-30 09:13 34.71012 133.76908 12751 ft 396 kts 233°
2026-04-30 09:13 34.69316 133.74177 12470 ft 410 kts 233°
2026-04-30 09:13 34.67649 133.71489 12747 ft 394 kts 233°
2026-04-30 09:14 34.66008 133.68848 12996 ft 396 kts 233°
2026-04-30 09:14 34.64347 133.66157 13451 ft 399 kts 233°
2026-04-30 09:14 34.62679 133.63454 14099 ft 398 kts 234°
2026-04-30 09:14 34.61043 133.60800 14674 ft 397 kts 233°
2026-04-30 09:15 34.59392 133.58136 15208 ft 397 kts 234°
2026-04-30 09:15 34.57736 133.55458 15670 ft 398 kts 234°
2026-04-30 09:15 34.56084 133.52780 16151 ft 399 kts 234°
2026-04-30 09:15 34.54420 133.50092 16620 ft 400 kts 234°
2026-04-30 09:16 34.52759 133.47411 17081 ft 400 kts 234°
2026-04-30 09:16 34.51084 133.44707 17504 ft 401 kts 234°
2026-04-30 09:16 34.49434 133.41994 17921 ft 401 kts 237°
2026-04-30 09:16 34.48096 133.39019 18304 ft 403 kts 246°
2026-04-30 09:17 34.47178 133.35809 18672 ft 406 kts 254°
2026-04-30 09:17 34.46691 133.32449 19030 ft 410 kts 261°
2026-04-30 09:17 34.46396 133.29052 19412 ft 411 kts 261°
2026-04-30 09:17 34.46116 133.25610 19745 ft 413 kts 261°
2026-04-30 09:18 34.45834 133.22142 20113 ft 415 kts 261°
2026-04-30 09:18 34.45553 133.18674 20439 ft 417 kts 261°
2026-04-30 09:18 34.45270 133.15185 20745 ft 419 kts 261°
2026-04-30 09:18 34.44982 133.11682 21073 ft 421 kts 261°
2026-04-30 09:19 34.44692 133.08157 21371 ft 423 kts 261°
2026-04-30 09:19 34.44396 133.04597 21668 ft 424 kts 261°
2026-04-30 09:19 34.44105 133.01080 22001 ft 425 kts 260°
2026-04-30 09:19 34.43780 132.97503 22286 ft 425 kts 257°
2026-04-30 09:20 34.43184 132.94043 22554 ft 424 kts 252°
2026-04-30 09:20 34.42272 132.90662 22866 ft 423 kts 246°
2026-04-30 09:20 34.41069 132.87434 23151 ft 422 kts 241°
2026-04-30 09:20 34.39688 132.84308 23417 ft 424 kts 240°
2026-04-30 09:21 34.38276 132.81168 23700 ft 424 kts 240°
2026-04-30 09:21 34.36872 132.78056 23990 ft 425 kts 240°
2026-04-30 09:21 34.35460 132.74928 24284 ft 425 kts 240°